Terminal Aerodrome Forecast
Issued by NWS Anchorage, AK

Home | Current Version | Previous Version | Text Only | Print | Product List | Glossary On
Versions: 1 2 3 4 5 6 7 8 9 10 11 12 13 14 15 16 17 18 19
000
FTAK31 PANC 220528
TAFANC
TAF
PANC 220528Z 2206/2312 34003KT P6SM SCT005 OVC050
     FM221600 02005KT P6SM -RA SCT025 OVC060
     FM222100 12008KT P6SM -SHRA SCT025 BKN080=

USA.gov is the U.S. government's official web portal to all federal, state and local government web resources and services.